User: anonymous   Login
Location: Unspecified
(0.0000°N, 0.0000°E)
Time: 13:12:04
(UTC+00:00)
Language:

TSUBAME - Orbit

View from above orbital plane
View from above orbital plane
View from above satellite
View from above satellite

Ground track
Ground track

The orbit data is extracted from the following two-line orbital elements,

1 40302U 14070E   21016.13207345  .00000771  00000-0  40010-4 0  9990
2 40302  97.2077  61.3799 0036461 230.3380 191.6788 15.18473247342851
Epoch (UTC): 16 January 2021 03:10:11
Eccentricity: 0.0036461
inclination: 97.2077°
perigee height: 485 km
apogee height: 535 km
right ascension of ascending node: 61.3799°
argument of perigee: 230.3380°
revolutions per day: 15.18473247
mean anomaly at epoch: 191.6788°
orbit number at epoch: 34285

The dashed part of the orbit path shows where the satellite is in the earth's shadow,  

DLR